owner,sensor,date,latitude,longitude,vertical_datum,wind_speed,wind_to_direction,wind_speed_of_gust,qcFlag 
TCOON,ioos:station:TCOON:009:1,2008-02-01T00:00:00Z,27.8398,-97.0727,0.0,8.1,329.0,9.8,'11111222,11111222,11111222' 
TCOON,ioos:station:TCOON:009:1,2008-02-01T01:00:00Z,27.8398,-97.0727,0.0,8.2,334.0,9.9,'11111222,11111222,11111222' 
TCOON,ioos:station:TCOON:009:1,2008-02-01T05:00:00Z,27.8398,-97.0727,0.0,4.7,4.0,6.8,'11111222,11111222,11111222' 
TCOON,ioos:station:TCOON:009:1,2008-02-01T06:00:00Z,27.8398,-97.0727,0.0,5.5,10.0,7.2,'11111222,11111222,11111222' 
TCOON,ioos:station:TCOON:009:1,2008-02-01T07:00:00Z,27.8398,-97.0727,0.0,4.1,14.0,5.0,'11111222,11111222,11111222' 
TCOON,ioos:station:TCOON:009:1,2008-02-01T08:00:00Z,27.8398,-97.0727,0.0,5.5,16.0,7.3,'11111222,11111222,11111222' 
TCOON,ioos:station:TCOON:009:1,2008-02-01T09:00:00Z,27.8398,-97.0727,0.0,4.9,24.0,6.7,'11111222,11111222,11111222' 
TCOON,ioos:station:TCOON:009:1,2008-02-01T10:00:00Z,27.8398,-97.0727,0.0,5.0,45.0,6.2,'11111222,11111222,11111222' 
TCOON,ioos:station:TCOON:009:1,2008-02-01T11:00:00Z,27.8398,-97.0727,0.0,4.8,36.0,6.0,'11111222,11111222,11111222' 
TCOON,ioos:station:TCOON:009:1,2008-02-01T12:00:00Z,27.8398,-97.0727,0.0,3.5,38.0,4.1,'11111222,11111222,11111222' 
TCOON,ioos:station:TCOON:009:1,2008-02-01T13:00:00Z,27.8398,-97.0727,0.0,4.9,71.0,5.7,'11111222,11111222,11111222' 
TCOON,ioos:station:TCOON:009:1,2008-02-01T14:00:00Z,27.8398,-97.0727,0.0,4.0,73.0,20.0,'11111222,11111222,11111222' 
TCOON,ioos:station:TCOON:009:1,2008-02-01T15:00:00Z,27.8398,-97.0727,0.0,3.1,71.0,3.8,'11111222,11111222,11111222' 
TCOON,ioos:station:TCOON:009:1,2008-02-01T16:00:00Z,27.8398,-97.0727,0.0,2.3,84.0,3.1,'11111222,11111222,11111222' 
TCOON,ioos:station:TCOON:009:1,2008-02-01T17:00:00Z,27.8398,-97.0727,0.0,3.4,69.0,4.0,'11111222,11111222,11111222' 
TCOON,ioos:station:TCOON:009:1,2008-02-01T18:00:00Z,27.8398,-97.0727,0.0,2.3,74.0,3.2,'11111222,11111222,11111222' 
TCOON,ioos:station:TCOON:009:1,2008-02-01T19:00:00Z,27.8398,-97.0727,0.0,3.5,74.0,4.1,'11111222,11111222,11111222' 
TCOON,ioos:station:TCOON:009:1,2008-02-01T20:00:00Z,27.8398,-97.0727,0.0,3.8,75.0,4.5,'11111222,11111222,11111222' 
TCOON,ioos:station:TCOON:009:1,2008-02-01T21:00:00Z,27.8398,-97.0727,0.0,4.4,86.0,5.8,'11111222,11111222,11111222' 
TCOON,ioos:station:TCOON:009:1,2008-02-01T22:00:00Z,27.8398,-97.0727,0.0,5.1,113.0,7.0,'11111222,11111222,11111222' 
TCOON,ioos:station:TCOON:009:1,2008-02-01T23:00:00Z,27.8398,-97.0727,0.0,3.9,125.0,5.9,'11111222,11111222,11111222' 
TCOON,ioos:station:TCOON:009:1,2008-02-02T00:00:00Z,27.8398,-97.0727,0.0,3.1,132.0,3.8,'11111222,11111222,11111222' 
TCOON,ioos:station:TCOON:009:1,2008-02-02T01:00:00Z,27.8398,-97.0727,0.0,1.0,157.0,1.8,'11111222,11111222,11111222' 
TCOON,ioos:station:TCOON:009:1,2008-02-02T02:00:00Z,27.8398,-97.0727,0.0,1.2,163.0,1.7,'11111222,11111222,11111222' 
TCOON,ioos:station:TCOON:009:1,2008-02-02T03:00:00Z,27.8398,-97.0727,0.0,1.9,168.0,2.7,'11111222,11111222,11111222' 
TCOON,ioos:station:TCOON:009:1,2008-02-02T04:00:00Z,27.8398,-97.0727,0.0,2.8,184.0,3.5,'11111222,11111222,11111222' 
TCOON,ioos:station:TCOON:009:1,2008-02-02T05:00:00Z,27.8398,-97.0727,0.0,1.9,175.0,2.9,'11111222,11111222,11111222' 
TCOON,ioos:station:TCOON:009:1,2008-02-02T06:00:00Z,27.8398,-97.0727,0.0,2.0,197.0,2.7,'11111222,11111222,11111222' 
TCOON,ioos:station:TCOON:009:1,2008-02-02T07:00:00Z,27.8398,-97.0727,0.0,1.9,227.0,2.5,'11111222,11111222,11111222' 
TCOON,ioos:station:TCOON:009:1,2008-02-02T08:00:00Z,27.8398,-97.0727,0.0,2.4,187.0,3.5,'11111222,11111222,11111222' 
TCOON,ioos:station:TCOON:009:1,2008-02-02T09:00:00Z,27.8398,-97.0727,0.0,0.8,239.0,1.1,'11111222,11111222,11111222' 
TCOON,ioos:station:TCOON:009:1,2008-02-02T10:00:00Z,27.8398,-97.0727,0.0,1.3,163.0,2.1,'11111222,11111222,11111222' 
TCOON,ioos:station:TCOON:009:1,2008-02-02T11:00:00Z,27.8398,-97.0727,0.0,1.8,162.0,2.7,'11111222,11111222,11111222' 
TCOON,ioos:station:TCOON:009:1,2008-02-02T12:00:00Z,27.8398,-97.0727,0.0,1.5,127.0,2.0,'11111222,11111222,11111222' 
TCOON,ioos:station:TCOON:009:1,2008-02-02T13:00:00Z,27.8398,-97.0727,0.0,1.4,62.0,1.5,'11111222,11111222,11111222' 
TCOON,ioos:station:TCOON:009:1,2008-02-02T14:00:00Z,27.8398,-97.0727,0.0,1.6,70.0,1.8,'11111222,11111222,11111222' 
TCOON,ioos:station:TCOON:009:1,2008-02-02T15:00:00Z,27.8398,-97.0727,0.0,1.8,82.0,2.0,'11111222,11111222,11111222' 
TCOON,ioos:station:TCOON:009:1,2008-02-02T16:00:00Z,27.8398,-97.0727,0.0,2.4,72.0,2.9,'11111222,11111222,11111222' 
TCOON,ioos:station:TCOON:009:1,2008-02-02T17:00:00Z,27.8398,-97.0727,0.0,3.1,144.0,5.5,'11111222,11111222,11111222' 
TCOON,ioos:station:TCOON:009:1,2008-02-02T18:00:00Z,27.8398,-97.0727,0.0,4.7,142.0,7.3,'11111222,11111222,11111222' 
TCOON,ioos:station:TCOON:009:1,2008-02-02T19:00:00Z,27.8398,-97.0727,0.0,4.3,137.0,6.2,'11111222,11111222,11111222' 
TCOON,ioos:station:TCOON:009:1,2008-02-02T20:00:00Z,27.8398,-97.0727,0.0,4.7,127.0,6.5,'11111222,11111222,11111222' 
TCOON,ioos:station:TCOON:009:1,2008-02-02T21:00:00Z,27.8398,-97.0727,0.0,3.7,121.0,5.3,'11111222,11111222,11111222' 
TCOON,ioos:station:TCOON:009:1,2008-02-02T22:00:00Z,27.8398,-97.0727,0.0,4.6,122.0,6.7,'11111222,11111222,11111222' 
TCOON,ioos:station:TCOON:009:1,2008-02-02T23:00:00Z,27.8398,-97.0727,0.0,5.7,120.0,8.2,'11111222,11111222,11111222' 
TCOON,ioos:station:TCOON:009:1,2008-02-03T00:00:00Z,27.8398,-97.0727,0.0,3.6,119.0,5.2,'11111222,11111222,11111222' 
TCOON,ioos:station:TCOON:009:1,2008-02-03T01:00:00Z,27.8398,-97.0727,0.0,4.4,119.0,6.9,'11111222,11111222,11111222' 
TCOON,ioos:station:TCOON:009:1,2008-02-03T02:00:00Z,27.8398,-97.0727,0.0,3.1,116.0,6.2,'11111222,11111222,11111222' 
TCOON,ioos:station:TCOON:009:1,2008-02-03T03:00:00Z,27.8398,-97.0727,0.0,4.6,118.0,7.2,'11111222,11111222,11111222' 
TCOON,ioos:station:TCOON:009:1,2008-02-03T04:00:00Z,27.8398,-97.0727,0.0,2.4,114.0,3.8,'11111222,11111222,11111222' 
TCOON,ioos:station:TCOON:009:1,2008-02-03T05:00:00Z,27.8398,-97.0727,0.0,2.4,119.0,3.2,'11111222,11111222,11111222' 
TCOON,ioos:station:TCOON:009:1,2008-02-03T06:00:00Z,27.8398,-97.0727,0.0,2.6,151.0,4.2,'11111222,11111222,11111222' 
TCOON,ioos:station:TCOON:009:1,2008-02-03T07:00:00Z,27.8398,-97.0727,0.0,3.6,154.0,6.6,'11111222,11111222,11111222' 
TCOON,ioos:station:TCOON:009:1,2008-02-03T08:00:00Z,27.8398,-97.0727,0.0,4.4,162.0,6.8,'11111222,11111222,11111222' 
TCOON,ioos:station:TCOON:009:1,2008-02-03T09:00:00Z,27.8398,-97.0727,0.0,4.4,159.0,5.8,'11111222,11111222,11111222' 
TCOON,ioos:station:TCOON:009:1,2008-02-03T10:00:00Z,27.8398,-97.0727,0.0,4.8,164.0,7.9,'11111222,11111222,11111222' 
TCOON,ioos:station:TCOON:009:1,2008-02-03T11:00:00Z,27.8398,-97.0727,0.0,3.0,178.0,5.2,'11111222,11111222,11111222' 
TCOON,ioos:station:TCOON:009:1,2008-02-03T12:00:00Z,27.8398,-97.0727,0.0,1.4,199.0,2.7,'11111222,11111222,11111222' 
TCOON,ioos:station:TCOON:009:1,2008-02-03T13:00:00Z,27.8398,-97.0727,0.0,2.3,177.0,3.1,'11111222,11111222,11111222' 
TCOON,ioos:station:TCOON:009:1,2008-02-03T14:00:00Z,27.8398,-97.0727,0.0,4.1,182.0,5.8,'11111222,11111222,11111222' 
TCOON,ioos:station:TCOON:009:1,2008-02-03T15:00:00Z,27.8398,-97.0727,0.0,3.7,184.0,5.1,'11111222,11111222,11111222' 
TCOON,ioos:station:TCOON:009:1,2008-02-03T16:00:00Z,27.8398,-97.0727,0.0,3.8,190.0,6.8,'11111222,11111222,11111222' 
TCOON,ioos:station:TCOON:009:1,2008-02-03T17:00:00Z,27.8398,-97.0727,0.0,2.2,236.0,3.4,'11111222,11111222,11111222' 
TCOON,ioos:station:TCOON:009:1,2008-02-03T18:00:00Z,27.8398,-97.0727,0.0,3.3,182.0,4.3,'11111222,11111222,11111222' 
TCOON,ioos:station:TCOON:009:1,2008-02-03T19:00:00Z,27.8398,-97.0727,0.0,2.6,155.0,3.8,'11111222,11111222,11111222' 
TCOON,ioos:station:TCOON:009:1,2008-02-03T20:00:00Z,27.8398,-97.0727,0.0,3.3,144.0,4.4,'11111222,11111222,11111222' 
TCOON,ioos:station:TCOON:009:1,2008-02-03T21:00:00Z,27.8398,-97.0727,0.0,5.1,141.0,7.1,'11111222,11111222,11111222' 
TCOON,ioos:station:TCOON:009:1,2008-02-03T22:00:00Z,27.8398,-97.0727,0.0,4.6,136.0,6.6,'11111222,11111222,11111222' 
TCOON,ioos:station:TCOON:009:1,2008-02-03T23:00:00Z,27.8398,-97.0727,0.0,4.0,135.0,6.1,'11111222,11111222,11111222' 
TCOON,ioos:station:TCOON:009:1,2008-02-04T00:00:00Z,27.8398,-97.0727,0.0,5.1,147.0,8.6,'11111222,11111222,11111222' 
TCOON,ioos:station:TCOON:009:1,2008-02-04T01:00:00Z,27.8398,-97.0727,0.0,4.4,145.0,8.2,'11111222,11111222,11111222' 
TCOON,ioos:station:TCOON:009:1,2008-02-04T02:00:00Z,27.8398,-97.0727,0.0,4.8,151.0,16.7,'11111222,11111222,11111222' 
TCOON,ioos:station:TCOON:009:1,2008-02-04T03:00:00Z,27.8398,-97.0727,0.0,3.4,159.0,5.3,'11111222,11111222,11111222' 
TCOON,ioos:station:TCOON:009:1,2008-02-04T04:00:00Z,27.8398,-97.0727,0.0,4.9,165.0,7.8,'11111222,11111222,11111222' 
TCOON,ioos:station:TCOON:009:1,2008-02-04T05:00:00Z,27.8398,-97.0727,0.0,6.5,160.0,10.4,'11111222,11111222,11111222' 
TCOON,ioos:station:TCOON:009:1,2008-02-04T06:00:00Z,27.8398,-97.0727,0.0,7.5,162.0,11.2,'11111222,11111222,11111222' 
TCOON,ioos:station:TCOON:009:1,2008-02-04T07:00:00Z,27.8398,-97.0727,0.0,6.0,164.0,8.4,'11111222,11111222,11111222' 
TCOON,ioos:station:TCOON:009:1,2008-02-04T08:00:00Z,27.8398,-97.0727,0.0,4.7,163.0,8.1,'11111222,11111222,11111222' 
TCOON,ioos:station:TCOON:009:1,2008-02-04T09:00:00Z,27.8398,-97.0727,0.0,4.3,160.0,8.3,'11111222,11111222,11111222' 
TCOON,ioos:station:TCOON:009:1,2008-02-04T10:00:00Z,27.8398,-97.0727,0.0,4.5,161.0,6.6,'11111222,11111222,11111222' 
TCOON,ioos:station:TCOON:009:1,2008-02-04T11:00:00Z,27.8398,-97.0727,0.0,3.9,161.0,6.5,'11111222,11111222,11111222' 
TCOON,ioos:station:TCOON:009:1,2008-02-04T12:00:00Z,27.8398,-97.0727,0.0,4.3,162.0,5.7,'11111222,11111222,11111222' 
TCOON,ioos:station:TCOON:009:1,2008-02-04T13:00:00Z,27.8398,-97.0727,0.0,3.5,153.0,6.5,'11111222,11111222,11111222' 
TCOON,ioos:station:TCOON:009:1,2008-02-04T14:00:00Z,27.8398,-97.0727,0.0,4.2,150.0,6.2,'11111222,11111222,11111222' 
TCOON,ioos:station:TCOON:009:1,2008-02-04T15:00:00Z,27.8398,-97.0727,0.0,4.6,152.0,7.4,'11111222,11111222,11111222' 
TCOON,ioos:station:TCOON:009:1,2008-02-04T16:00:00Z,27.8398,-97.0727,0.0,5.9,159.0,8.8,'11111222,11111222,11111222' 
TCOON,ioos:station:TCOON:009:1,2008-02-04T17:00:00Z,27.8398,-97.0727,0.0,5.4,170.0,8.6,'11111222,11111222,11111222' 
TCOON,ioos:station:TCOON:009:1,2008-02-04T18:00:00Z,27.8398,-97.0727,0.0,4.6,164.0,8.7,'11111222,11111222,11111222' 
TCOON,ioos:station:TCOON:009:1,2008-02-04T19:00:00Z,27.8398,-97.0727,0.0,5.8,175.0,9.6,'11111222,11111222,11111222' 
TCOON,ioos:station:TCOON:009:1,2008-02-04T20:00:00Z,27.8398,-97.0727,0.0,6.8,162.0,12.2,'11111222,11111222,11111222' 
TCOON,ioos:station:TCOON:009:1,2008-02-04T21:00:00Z,27.8398,-97.0727,0.0,5.9,158.0,9.5,'11111222,11111222,11111222' 
TCOON,ioos:station:TCOON:009:1,2008-02-04T22:00:00Z,27.8398,-97.0727,0.0,5.2,155.0,8.6,'11111222,11111222,11111222' 
TCOON,ioos:station:TCOON:009:1,2008-02-04T23:00:00Z,27.8398,-97.0727,0.0,6.8,153.0,9.5,'11111222,11111222,11111222' 
TCOON,ioos:station:TCOON:009:1,2008-02-05T00:00:00Z,27.8398,-97.0727,0.0,4.3,160.0,6.8,'11111222,11111222,11111222' 
TCOON,ioos:station:TCOON:009:1,2008-02-05T01:00:00Z,27.8398,-97.0727,0.0,5.0,156.0,7.1,'11111222,11111222,11111222' 
TCOON,ioos:station:TCOON:009:1,2008-02-05T02:00:00Z,27.8398,-97.0727,0.0,4.2,156.0,6.9,'11111222,11111222,11111222' 
TCOON,ioos:station:TCOON:009:1,2008-02-05T03:00:00Z,27.8398,-97.0727,0.0,4.6,157.0,7.2,'11111222,11111222,11111222' 
TCOON,ioos:station:TCOON:009:1,2008-02-05T04:00:00Z,27.8398,-97.0727,0.0,4.8,159.0,7.5,'11111222,11111222,11111222' 
TCOON,ioos:station:TCOON:009:1,2008-02-05T05:00:00Z,27.8398,-97.0727,0.0,3.6,163.0,6.8,'11111222,11111222,11111222' 
TCOON,ioos:station:TCOON:009:1,2008-02-05T06:00:00Z,27.8398,-97.0727,0.0,3.8,165.0,6.7,'11111222,11111222,11111222' 
TCOON,ioos:station:TCOON:009:1,2008-02-05T07:00:00Z,27.8398,-97.0727,0.0,3.6,180.0,5.1,'11111222,11111222,11111222' 
TCOON,ioos:station:TCOON:009:1,2008-02-05T08:00:00Z,27.8398,-97.0727,0.0,3.5,180.0,5.0,'11111222,11111222,11111222' 
TCOON,ioos:station:TCOON:009:1,2008-02-05T09:00:00Z,27.8398,-97.0727,0.0,4.3,164.0,6.7,'11111222,11111222,11111222' 
TCOON,ioos:station:TCOON:009:1,2008-02-05T10:00:00Z,27.8398,-97.0727,0.0,4.6,161.0,6.3,'11111222,11111222,11111222' 
TCOON,ioos:station:TCOON:009:1,2008-02-05T11:00:00Z,27.8398,-97.0727,0.0,5.0,188.0,6.3,'11111222,11111222,11111222' 
TCOON,ioos:station:TCOON:009:1,2008-02-05T12:00:00Z,27.8398,-97.0727,0.0,4.8,173.0,9.0,'11111222,11111222,11111222' 
TCOON,ioos:station:TCOON:009:1,2008-02-05T13:00:00Z,27.8398,-97.0727,0.0,6.3,180.0,9.9,'11111222,11111222,11111222' 
TCOON,ioos:station:TCOON:009:1,2008-02-05T14:00:00Z,27.8398,-97.0727,0.0,9.7,180.0,14.4,'11111222,11111222,11111222' 
TCOON,ioos:station:TCOON:009:1,2008-02-05T15:00:00Z,27.8398,-97.0727,0.0,7.2,177.0,11.7,'11111222,11111222,11111222' 
TCOON,ioos:station:TCOON:009:1,2008-02-05T16:00:00Z,27.8398,-97.0727,0.0,7.4,184.0,10.5,'11111222,11111222,11111222' 
TCOON,ioos:station:TCOON:009:1,2008-02-05T17:00:00Z,27.8398,-97.0727,0.0,8.0,190.0,11.2,'11111222,11111222,11111222' 
TCOON,ioos:station:TCOON:009:1,2008-02-05T18:00:00Z,27.8398,-97.0727,0.0,9.2,180.0,13.2,'11111222,11111222,11111222' 
TCOON,ioos:station:TCOON:009:1,2008-02-05T19:00:00Z,27.8398,-97.0727,0.0,7.7,178.0,11.1,'11111222,11111222,11111222' 
TCOON,ioos:station:TCOON:009:1,2008-02-05T20:00:00Z,27.8398,-97.0727,0.0,5.8,170.0,10.4,'11111222,11111222,11111222' 
TCOON,ioos:station:TCOON:009:1,2008-02-05T21:00:00Z,27.8398,-97.0727,0.0,6.1,173.0,9.2,'11111222,11111222,11111222' 
TCOON,ioos:station:TCOON:009:1,2008-02-05T22:00:00Z,27.8398,-97.0727,0.0,7.6,175.0,11.8,'11111222,11111222,11111222' 
TCOON,ioos:station:TCOON:009:1,2008-02-05T23:00:00Z,27.8398,-97.0727,0.0,6.9,171.0,10.6,'11111222,11111222,11111222' 
TCOON,ioos:station:TCOON:009:1,2008-02-06T00:00:00Z,27.8398,-97.0727,0.0,7.4,173.0,11.1,'11111222,11111222,11111222' 
TCOON,ioos:station:TCOON:009:1,2008-02-06T01:00:00Z,27.8398,-97.0727,0.0,6.2,233.0,9.0,'11111222,11111222,11111222' 
TCOON,ioos:station:TCOON:009:1,2008-02-06T02:00:00Z,27.8398,-97.0727,0.0,2.4,200.0,4.4,'11111222,11111222,11111222' 
TCOON,ioos:station:TCOON:009:1,2008-02-06T03:00:00Z,27.8398,-97.0727,0.0,8.2,359.0,11.4,'11111222,11111222,11111222' 
TCOON,ioos:station:TCOON:009:1,2008-02-06T04:00:00Z,27.8398,-97.0727,0.0,5.2,354.0,25.0,'11111222,11111222,11111222' 
TCOON,ioos:station:TCOON:009:1,2008-02-06T05:00:00Z,27.8398,-97.0727,0.0,3.9,352.0,5.1,'11111222,11111222,11111222' 
TCOON,ioos:station:TCOON:009:1,2008-02-06T06:00:00Z,27.8398,-97.0727,0.0,5.0,337.0,6.2,'11111222,11111222,11111222' 
TCOON,ioos:station:TCOON:009:1,2008-02-06T07:00:00Z,27.8398,-97.0727,0.0,7.8,345.0,10.4,'11111222,11111222,11111222' 
TCOON,ioos:station:TCOON:009:1,2008-02-06T08:00:00Z,27.8398,-97.0727,0.0,8.2,335.0,9.7,'11111222,11111222,11111222' 
TCOON,ioos:station:TCOON:009:1,2008-02-06T09:00:00Z,27.8398,-97.0727,0.0,7.2,345.0,9.0,'11111222,11111222,11111222' 
TCOON,ioos:station:TCOON:009:1,2008-02-06T10:00:00Z,27.8398,-97.0727,0.0,8.1,4.0,10.6,'11111222,11111222,11111222' 
TCOON,ioos:station:TCOON:009:1,2008-02-06T11:00:00Z,27.8398,-97.0727,0.0,6.1,5.0,7.5,'11111222,11111222,11111222' 
TCOON,ioos:station:TCOON:009:1,2008-02-06T12:00:00Z,27.8398,-97.0727,0.0,7.6,355.0,9.8,'11111222,11111222,11111222' 
TCOON,ioos:station:TCOON:009:1,2008-02-06T13:00:00Z,27.8398,-97.0727,0.0,10.3,3.0,13.2,'11111222,11111222,11111222' 
TCOON,ioos:station:TCOON:009:1,2008-02-06T14:00:00Z,27.8398,-97.0727,0.0,7.6,1.0,9.5,'11111222,11111222,11111222' 
TCOON,ioos:station:TCOON:009:1,2008-02-06T16:00:00Z,27.8398,-97.0727,0.0,5.2,5.0,7.0,'11111222,11111222,11111222' 
TCOON,ioos:station:TCOON:009:1,2008-02-06T17:00:00Z,27.8398,-97.0727,0.0,5.2,13.0,6.5,'11111222,11111222,11111222' 
TCOON,ioos:station:TCOON:009:1,2008-02-06T18:00:00Z,27.8398,-97.0727,0.0,3.6,3.0,5.2,'11111222,11111222,11111222' 
TCOON,ioos:station:TCOON:009:1,2008-02-06T19:00:00Z,27.8398,-97.0727,0.0,3.0,33.0,4.2,'11111222,11111222,11111222' 
TCOON,ioos:station:TCOON:009:1,2008-02-06T20:00:00Z,27.8398,-97.0727,0.0,3.7,94.0,5.0,'11111222,11111222,11111222' 
TCOON,ioos:station:TCOON:009:1,2008-02-06T21:00:00Z,27.8398,-97.0727,0.0,4.4,162.0,6.0,'11111222,11111222,11111222' 
TCOON,ioos:station:TCOON:009:1,2008-02-06T22:00:00Z,27.8398,-97.0727,0.0,4.7,135.0,6.1,'11111222,11111222,11111222' 
TCOON,ioos:station:TCOON:009:1,2008-02-06T23:00:00Z,27.8398,-97.0727,0.0,4.5,113.0,5.9,'11111222,11111222,11111222' 
TCOON,ioos:station:TCOON:009:1,2008-02-07T00:00:00Z,27.8398,-97.0727,0.0,2.8,107.0,3.6,'11111222,11111222,11111222' 
TCOON,ioos:station:TCOON:009:1,2008-02-07T01:00:00Z,27.8398,-97.0727,0.0,2.3,112.0,3.1,'11111222,11111222,11111222' 
TCOON,ioos:station:TCOON:009:1,2008-02-07T02:00:00Z,27.8398,-97.0727,0.0,2.3,111.0,3.5,'11111222,11111222,11111222' 
TCOON,ioos:station:TCOON:009:1,2008-02-07T03:00:00Z,27.8398,-97.0727,0.0,2.6,105.0,3.6,'11111222,11111222,11111222' 
TCOON,ioos:station:TCOON:009:1,2008-02-07T04:00:00Z,27.8398,-97.0727,0.0,3.0,121.0,4.2,'11111222,11111222,11111222' 
TCOON,ioos:station:TCOON:009:1,2008-02-07T05:00:00Z,27.8398,-97.0727,0.0,2.7,129.0,3.4,'11111222,11111222,11111222' 
TCOON,ioos:station:TCOON:009:1,2008-02-07T06:00:00Z,27.8398,-97.0727,0.0,2.7,137.0,3.4,'11111222,11111222,11111222' 
TCOON,ioos:station:TCOON:009:1,2008-02-07T07:00:00Z,27.8398,-97.0727,0.0,1.8,142.0,2.6,'11111222,11111222,11111222' 
TCOON,ioos:station:TCOON:009:1,2008-02-07T08:00:00Z,27.8398,-97.0727,0.0,2.0,146.0,2.9,'11111222,11111222,11111222' 
TCOON,ioos:station:TCOON:009:1,2008-02-07T09:00:00Z,27.8398,-97.0727,0.0,1.6,131.0,2.1,'11111222,11111222,11111222' 
TCOON,ioos:station:TCOON:009:1,2008-02-07T10:00:00Z,27.8398,-97.0727,0.0,1.8,173.0,2.8,'11111222,11111222,11111222' 
TCOON,ioos:station:TCOON:009:1,2008-02-07T11:00:00Z,27.8398,-97.0727,0.0,2.1,170.0,3.0,'11111222,11111222,11111222' 
TCOON,ioos:station:TCOON:009:1,2008-02-07T12:00:00Z,27.8398,-97.0727,0.0,1.8,174.0,2.5,'11111222,11111222,11111222' 
TCOON,ioos:station:TCOON:009:1,2008-02-07T13:00:00Z,27.8398,-97.0727,0.0,1.2,231.0,1.6,'11111222,11111222,11111222' 
TCOON,ioos:station:TCOON:009:1,2008-02-07T14:00:00Z,27.8398,-97.0727,0.0,4.5,332.0,5.1,'11111222,11111222,11111222' 
TCOON,ioos:station:TCOON:009:1,2008-02-07T16:00:00Z,27.8398,-97.0727,0.0,2.1,278.0,2.5,'11111222,11111222,11111222' 
TCOON,ioos:station:TCOON:009:1,2008-02-07T17:00:00Z,27.8398,-97.0727,0.0,3.2,272.0,3.7,'11111222,11111222,11111222' 
TCOON,ioos:station:TCOON:009:1,2008-02-07T18:00:00Z,27.8398,-97.0727,0.0,2.8,204.0,4.6,'11111222,11111222,11111222' 
TCOON,ioos:station:TCOON:009:1,2008-02-07T19:00:00Z,27.8398,-97.0727,0.0,5.2,193.0,7.6,'11111222,11111222,11111222' 
TCOON,ioos:station:TCOON:009:1,2008-02-07T20:00:00Z,27.8398,-97.0727,0.0,4.4,186.0,5.6,'11111222,11111222,11111222' 
TCOON,ioos:station:TCOON:009:1,2008-02-07T21:00:00Z,27.8398,-97.0727,0.0,3.9,174.0,6.4,'11111222,11111222,11111222' 
TCOON,ioos:station:TCOON:009:1,2008-02-07T22:00:00Z,27.8398,-97.0727,0.0,4.4,170.0,7.5,'11111222,11111222,11111222' 
TCOON,ioos:station:TCOON:009:1,2008-02-07T23:00:00Z,27.8398,-97.0727,0.0,4.2,169.0,6.2,'11111222,11111222,11111222' 
TCOON,ioos:station:TCOON:009:1,2008-02-08T00:00:00Z,27.8398,-97.0727,0.0,2.7,194.0,4.3,'11111222,11111222,11111222' 
TCOON,ioos:station:TCOON:009:1,2008-02-08T01:00:00Z,27.8398,-97.0727,0.0,2.5,187.0,3.1,'11111222,11111222,11111222' 
TCOON,ioos:station:TCOON:009:1,2008-02-08T02:00:00Z,27.8398,-97.0727,0.0,1.4,207.0,2.1,'11111222,11111222,11111222' 
TCOON,ioos:station:TCOON:009:1,2008-02-08T03:00:00Z,27.8398,-97.0727,0.0,1.4,207.0,2.0,'11111222,11111222,11111222' 
TCOON,ioos:station:TCOON:009:1,2008-02-08T04:00:00Z,27.8398,-97.0727,0.0,2.2,221.0,2.5,'11111222,11111222,11111222' 
TCOON,ioos:station:TCOON:009:1,2008-02-08T05:00:00Z,27.8398,-97.0727,0.0,1.5,229.0,1.7,'11111222,11111222,11111222' 
TCOON,ioos:station:TCOON:009:1,2008-02-08T06:00:00Z,27.8398,-97.0727,0.0,2.2,345.0,2.7,'11111222,11111222,11111222' 
TCOON,ioos:station:TCOON:009:1,2008-02-08T07:00:00Z,27.8398,-97.0727,0.0,0.8,60.0,1.0,'11111222,11111222,11111222' 
TCOON,ioos:station:TCOON:009:1,2008-02-08T08:00:00Z,27.8398,-97.0727,0.0,1.6,79.0,1.7,'11111222,11111222,11111222' 
TCOON,ioos:station:TCOON:009:1,2008-02-08T09:00:00Z,27.8398,-97.0727,0.0,2.1,112.0,2.6,'11111222,11111222,11111222' 
TCOON,ioos:station:TCOON:009:1,2008-02-08T10:00:00Z,27.8398,-97.0727,0.0,2.3,111.0,3.1,'11111222,11111222,11111222' 
TCOON,ioos:station:TCOON:009:1,2008-02-08T11:00:00Z,27.8398,-97.0727,0.0,1.8,121.0,2.2,'11111222,11111222,11111222' 
TCOON,ioos:station:TCOON:009:1,2008-02-08T12:00:00Z,27.8398,-97.0727,0.0,2.2,121.0,2.6,'11111222,11111222,11111222' 
TCOON,ioos:station:TCOON:009:1,2008-02-08T13:00:00Z,27.8398,-97.0727,0.0,2.3,125.0,2.9,'11111222,11111222,11111222' 
TCOON,ioos:station:TCOON:009:1,2008-02-08T14:00:00Z,27.8398,-97.0727,0.0,2.4,155.0,3.2,'11111222,11111222,11111222' 
TCOON,ioos:station:TCOON:009:1,2008-02-08T15:00:00Z,27.8398,-97.0727,0.0,3.5,181.0,4.5,'11111222,11111222,11111222' 
TCOON,ioos:station:TCOON:009:1,2008-02-08T16:00:00Z,27.8398,-97.0727,0.0,4.7,185.0,6.8,'11111222,11111222,11111222' 
TCOON,ioos:station:TCOON:009:1,2008-02-08T17:00:00Z,27.8398,-97.0727,0.0,4.8,179.0,6.6,'11111222,11111222,11111222' 
TCOON,ioos:station:TCOON:009:1,2008-02-08T18:00:00Z,27.8398,-97.0727,0.0,5.1,179.0,6.9,'11111222,11111222,11111222' 
TCOON,ioos:station:TCOON:009:1,2008-02-08T19:00:00Z,27.8398,-97.0727,0.0,4.8,172.0,8.3,'11111222,11111222,11111222' 
TCOON,ioos:station:TCOON:009:1,2008-02-08T20:00:00Z,27.8398,-97.0727,0.0,4.9,162.0,7.4,'11111222,11111222,11111222' 
TCOON,ioos:station:TCOON:009:1,2008-02-08T21:00:00Z,27.8398,-97.0727,0.0,4.7,149.0,6.6,'11111222,11111222,11111222' 
TCOON,ioos:station:TCOON:009:1,2008-02-08T22:00:00Z,27.8398,-97.0727,0.0,4.6,153.0,8.3,'11111222,11111222,11111222' 
TCOON,ioos:station:TCOON:009:1,2008-02-08T23:00:00Z,27.8398,-97.0727,0.0,5.4,157.0,8.7,'11111222,11111222,11111222' 
TCOON,ioos:station:TCOON:009:1,2008-02-09T00:00:00Z,27.8398,-97.0727,0.0,3.6,158.0,5.8,'11111222,11111222,11111222' 
TCOON,ioos:station:TCOON:009:1,2008-02-09T01:00:00Z,27.8398,-97.0727,0.0,4.5,166.0,6.7,'11111222,11111222,11111222' 
TCOON,ioos:station:TCOON:009:1,2008-02-09T02:00:00Z,27.8398,-97.0727,0.0,3.9,164.0,6.8,'11111222,11111222,11111222' 
TCOON,ioos:station:TCOON:009:1,2008-02-09T03:00:00Z,27.8398,-97.0727,0.0,3.8,169.0,6.0,'11111222,11111222,11111222' 
TCOON,ioos:station:TCOON:009:1,2008-02-09T04:00:00Z,27.8398,-97.0727,0.0,3.8,167.0,6.1,'11111222,11111222,11111222' 
TCOON,ioos:station:TCOON:009:1,2008-02-09T05:00:00Z,27.8398,-97.0727,0.0,3.7,177.0,6.2,'11111222,11111222,11111222' 
TCOON,ioos:station:TCOON:009:1,2008-02-09T06:00:00Z,27.8398,-97.0727,0.0,2.4,176.0,3.3,'11111222,11111222,11111222' 
TCOON,ioos:station:TCOON:009:1,2008-02-09T07:00:00Z,27.8398,-97.0727,0.0,2.1,172.0,3.1,'11111222,11111222,11111222' 
TCOON,ioos:station:TCOON:009:1,2008-02-09T08:00:00Z,27.8398,-97.0727,0.0,1.6,164.0,2.6,'11111222,11111222,11111222' 
TCOON,ioos:station:TCOON:009:1,2008-02-09T09:00:00Z,27.8398,-97.0727,0.0,1.8,145.0,2.6,'11111222,11111222,11111222' 
TCOON,ioos:station:TCOON:009:1,2008-02-09T10:00:00Z,27.8398,-97.0727,0.0,2.4,156.0,4.0,'11111222,11111222,11111222' 
TCOON,ioos:station:TCOON:009:1,2008-02-09T11:00:00Z,27.8398,-97.0727,0.0,1.9,122.0,2.5,'11111222,11111222,11111222' 
TCOON,ioos:station:TCOON:009:1,2008-02-09T12:00:00Z,27.8398,-97.0727,0.0,2.1,109.0,2.9,'11111222,11111222,11111222' 
TCOON,ioos:station:TCOON:009:1,2008-02-09T13:00:00Z,27.8398,-97.0727,0.0,2.7,115.0,3.8,'11111222,11111222,11111222' 
TCOON,ioos:station:TCOON:009:1,2008-02-09T14:00:00Z,27.8398,-97.0727,0.0,2.2,76.0,2.4,'11111222,11111222,11111222' 
TCOON,ioos:station:TCOON:009:1,2008-02-09T15:00:00Z,27.8398,-97.0727,0.0,1.7,96.0,2.6,'11111222,11111222,11111222' 
TCOON,ioos:station:TCOON:009:1,2008-02-09T16:00:00Z,27.8398,-97.0727,0.0,2.7,77.0,3.1,'11111222,11111222,11111222' 